Regional Weather Roundup
Issued by NWS Albany, NY

Home | Current Version | Previous Version | Text Only | Print | Product List | Glossary On
Versions: 1 2 3 4 5 6 7 8 9 10 11 12 13 14 15 16 17 18 19 20 21 22 23 24 25 26 27
000
ASUS41 KALY 210410
RWRALY

NEW YORK STATE HOURLY WEATHER ROUNDUP
NATIONAL WEATHER SERVICE ALBANY NY
1100 PM EST FRI JAN 20 2017

NOTE: "FAIR" INDICATES FEW OR NO CLOUDS BELOW 12,000 FEET WITH NO
SIGNIFICANT WEATHER AND/OR NO OBSTRUCTIONS TO VISIBILITY.

NYZ032-033-038>043-046>054-057>066-NYZ062>081-082-084-210500-
EAST


CITY           SKY/WX    TMP DP  RH WIND       PRES   REMARKS
ALBANY         CLOUDY    39  33  79 S10       29.87F WCI  32
GLENS FALLS    CLOUDY    34  31  88 CALM      29.87F FOG
POUGHKEEPSIE   MIX PCPN  37  36  96 CALM      29.91F FOG
NEWBURGH       LGT RAIN  37  37 100 CALM      29.91F FOG
MONTGOMERY     LGT RAIN  38  37  97 CALM      29.89F FOG
WHITE PLAINS   LGT RAIN  38  37  97 CALM      29.91S VSB 1
ISLIP          LGT RAIN  42  42 100 S3        29.92S FOG
NEW YORK CITY  CLOUDY    42  39  89 NE6       29.92S FOG
CENTRAL PARK   CLOUDY    41  40  96 S5        29.94S FOG
$$

NYZ005>009-017-018-044>046-055-056-210500-
CENTRAL


CITY           SKY/WX    TMP DP  RH WIND       PRES   REMARKS
FULTON         CLOUDY    37  36  96 SE5       29.80R FOG     WCI  33
SYRACUSE       DRIZZLE   37  37 100 E5        29.80S FOG     WCI  33
ROME           CLOUDY    35  35 100 SE5       29.84S WCI  31
ELMIRA         CLOUDY    39  37  92 CALM      29.82R FOG
BINGHAMTON     FOG       35  35 100 S5        29.82R VSB 1/4 WCI  31
MONTICELLO     CLOUDY    34  34 100 E3        29.88S VSB 1/2
$$

NYZ026>034-041>043-087-210500-
NORTH


CITY           SKY/WX    TMP DP  RH WIND       PRES   REMARKS
WATERTOWN      CLOUDY    39  37  92 CALM      29.79S
FORT DRUM      NOT AVBL
OGDENSBURG     MOCLDY    35  32  90 CALM      29.81S
MASSENA        CLOUDY    34  31  88 CALM      29.83S
SARANAC LAKE   CLOUDY    33  30  88 CALM      29.77S
PLATTSBURGH    CLOUDY    32  29  88 CALM      29.84S
$$

NYZ001>004-010>016-019>021-085-210500-
WEST


CITY           SKY/WX    TMP DP  RH WIND       PRES   REMARKS
NIAGARA FALLS  CLOUDY    46  42  86 SW14      29.75S
BUFFALO        CLOUDY    45  44  97 SW13      29.76R FOG
DUNKIRK        CLOUDY    44  44 100 SW13      29.79R FOG
JAMESTOWN      CLOUDY    46  45  93 S5        29.77S VSB 1/4
WELLSVILLE     CLOUDY    45  42  89 SW8       29.80R FOG
ROCHESTER      LGT RAIN  44  42  93 CALM      29.78R FOG
PENN YAN       CLOUDY    42  36  79 SW6       29.80R
$$

             KEY
       WCI = WIND CHILL INDEX
       VSB = VISIBILITY
       HX  = HEAT INDEX
$$




USA.gov is the U.S. government's official web portal to all federal, state and local government web resources and services.